Погода в Мынчаково

Россия / Вологодская область     59°27′59″N   39°09′29″E
темп.,
°C
ветер,
м/с
пор.,
м/с
влажн.,
%
обл.,
%
осадки,
мм/ч
давл.,
гПа
погр.,
м
15 августа, пн
пн1500:00+16вюв11924 0.0 102211
03:00+16в119287 0.0 102313
06:00+17вюв2289100 0.0 102351
09:00+18в2385100 0.0 1023151
12:00+22вюв236630 0.0 1024444
15:00+26вюв22507 0.0 10231496
18:00+23в236532 0.0 102385
21:00+19вюв227542 0.0 102426
16 августа, вт
вт1600:00+17ююв2279100 0.0 102428
03:00+17ююв2482100 0.0 102478
06:00+18юв257899 0.0 1024135
09:00+19ююв247598 0.0 1025138
12:00+25ююв244987 0.0 1024847
15:00+27юв344193 0.0 10232285
18:00+21ю2262100 0.0 102331
21:00+19ююв227020 0.0 102428
17 августа, ср
ср1700:00+18ююв247397 0.0 102472
03:00+18юв2267100 0.0 102345
06:00+18ююв1172100 0.0 102328
09:00+21юв356691 0.0 1023219
12:00+23юв345639 0.0 1023412
15:00+25вюв33475 0.0 10221359
18:00+24вюв246010 0.0 1022213
21:00+18вюв23705 0.0 102249
18 августа, чт
чт1800:00+16вюв247355 0.0 102275
03:00+18вюв2569100 0.0 1022104
06:00+18юв2669100 0.0 1022126
09:00+18юв2573100 0.0 1023156
12:00+23ююв245628 0.0 1023608
15:00+27юв33410 0.0 10232044
18:00+25вюв12570 0.0 102340
21:00+19вюв226939 0.0 102427
19 августа, пт
пт1900:00+17юв35740 0.0 102473
03:00+16юв22770 0.0 102527
06:00+16юв24790 0.0 102683
09:00+22юв36580 0.0 1027382
12:00+26юв46420 0.0 10261606
15:00+27ююв463997 0.0 10252165
18:00+24ююв385976 0.0 1025375
21:00+19ю227096 0.0 102518